Pond Inlet,

2:56 PM EDT on May 25, 2018 (GMT -0400)
Pond Inlet

Weather History for CYIO - October, 2012

Change the Weather History Date:

Wednesday, October 10, 2012

  Actual Average Record
Temperature  
Mean Temperature 17 °F -  
Max Temperature 24 °F 13 °F 33 °F (2014)
Min Temperature 10 °F 4 °F 1 °F (2002)
Degree Days  
Heating Degree Days 48    
Moisture  
Dew Point 15 °F    
Average Humidity 79    
Maximum Humidity 93    
Minimum Humidity 59    
Precipitation  
Precipitation 0.00 in - - ()
Sea Level Pressure  
Sea Level Pressure 29.78 in    
Wind  
Wind Speed 12 mph ()    
Max Wind Speed 18 mph    
Max Gust Speed 18 mph    
Visibility 6.3 miles    
Events Snow    
Averages and records for this station are not official NWS values.
T = Trace of Precipitation, MM = Missing Value Source: Averaged Metar Reports

Daily Weather History Graph

Daily Weather History Graph

Search for Another Location

Airport or City:

Astronomy

Oct. 10, 2012 Rise Set
Actual Time 8:18 AM EDT 5:37 PM EDT
Civil Twilight 7:06 AM EDT 6:48 PM EDT
Nautical Twilight 5:44 AM EDT 8:09 PM EDT
Astronomical Twilight 4:13 AM EDT 9:39 PM EDT
Moon No Moon Rise 5:34 PM EDT (10/10)
Length of Visible Light 11h 42m
Length of Day
9h 19m
Waning Crescent, 27% of the Moon is Illuminated
Oct 10
Waning Crescent
Oct 15
New
Oct 21
First Quarter
Oct 29
Full
Nov 6
Last Quarter

Hourly Weather History & Observations

Time (EDT) Temp. Windchill Dew Point Humidity Pressure Visibility Wind Dir Wind Speed Gust Speed Precip Events Conditions
12:00 AM 23.0 °F 9.2 °F 17.6 °F 80% 29.75 in 3.5 mi SSW 17.3 mph - N/A   Overcast
12:23 AM 23.0 °F 9.6 °F 17.6 °F 80% 29.73 in 7.0 mi South 16.1 mph - N/A Snow Light Snow
12:51 AM 23.0 °F 8.7 °F 17.6 °F 80% 29.73 in 5.0 mi SSW 18.4 mph - N/A Snow Light Snow
1:00 AM 23.0 °F 9.2 °F 17.6 °F 80% 29.75 in 8.0 mi SSW 17.3 mph - N/A Snow Light Snow
1:12 AM 23.0 °F 10.1 °F 17.6 °F 80% 29.73 in 7.0 mi South 15.0 mph - N/A Snow Light Snow
1:26 AM 23.0 °F 9.6 °F 17.6 °F 80% 29.73 in 9.0 mi South 16.1 mph - N/A   Overcast
1:56 AM 23.0 °F 11.1 °F 17.6 °F 80% 29.73 in 9.0 mi South 12.7 mph - N/A   Overcast
2:00 AM 23 °F - 17 °F 70% 29.75 in 9 mi South 12.7 mph - -   Overcast
2:00 AM 23.0 °F 11.7 °F 17.6 °F 80% 29.75 in 9.0 mi South 11.5 mph - N/A   Overcast
3:00 AM 23.0 °F 11.7 °F 15.8 °F 74% 29.75 in 9.0 mi South 11.5 mph - N/A   Overcast
4:00 AM 24.8 °F 13.4 °F 15.8 °F 69% 29.75 in 9.0 mi SSW 12.7 mph - N/A   Overcast
5:00 AM 24 °F - 15 °F 59% 29.75 in 9 mi SSW 13.8 mph - -   Overcast
5:00 AM 23.0 °F 11.1 °F 15.8 °F 74% 29.75 in 9.0 mi SSW 12.7 mph - N/A   Overcast
5:20 AM 23.0 °F 10.6 °F 15.8 °F 74% 29.72 in 9.0 mi SSW 13.8 mph - N/A   Overcast
6:00 AM 23.0 °F 11.1 °F 15.8 °F 74% 29.74 in 9.0 mi South 12.7 mph - N/A   Overcast
6:11 AM 24.8 °F 12.4 °F 15.8 °F 69% 29.72 in 9.0 mi South 15.0 mph - N/A   Overcast
7:00 AM 24.8 °F 11.9 °F 15.8 °F 69% 29.74 in 9.0 mi SSW 16.1 mph - N/A   Overcast
7:17 AM 24.8 °F 14.0 °F 15.8 °F 69% 29.72 in 7.0 mi SSW 11.5 mph - N/A   Overcast
7:27 AM 23.0 °F 12.4 °F 17.6 °F 80% 29.72 in 3.0 mi SW 10.4 mph - N/A Snow Light Snow
7:33 AM 23.0 °F 11.1 °F 17.6 °F 80% 29.71 in 3.0 mi SW 12.7 mph - N/A Snow Light Snow
7:34 AM 23.0 °F 10.6 °F 17.6 °F 80% 29.71 in 2.5 mi SW 13.8 mph - N/A Snow Light Snow
7:38 AM 23.0 °F 10.6 °F 17.6 °F 80% 29.70 in 1.6 mi SW 13.8 mph - N/A Snow Light Snow
7:40 AM 23.0 °F 11.1 °F 19.4 °F 86% 29.70 in 1.4 mi SW 12.7 mph - N/A Snow Light Snow
7:58 AM 23.0 °F 11.1 °F 17.6 °F 80% 29.72 in 3.0 mi SSW 12.7 mph - N/A Snow Light Snow
8:00 AM 23 °F - 18 °F 75% 29.74 in 4 mi SSW 12.7 mph - -  
8:00 AM 23.0 °F 11.7 °F 17.6 °F 80% 29.74 in 4.0 mi SSW 11.5 mph - N/A Snow Light Snow
8:04 AM 23.0 °F 10.6 °F 17.6 °F 80% 29.72 in 7.0 mi SSW 13.8 mph - N/A   Unknown
8:10 AM 23.0 °F 11.1 °F 17.6 °F 80% 29.72 in 7.0 mi SSW 12.7 mph 18.4 mph N/A   Overcast
8:23 AM 23.0 °F 11.1 °F 17.6 °F 80% 29.72 in 6.0 mi SSW 12.7 mph - N/A Snow Light Snow
8:34 AM 23.0 °F 11.7 °F 19.4 °F 86% 29.72 in 2.5 mi SSW 11.5 mph - N/A Snow Light Snow
8:43 AM 23.0 °F 11.7 °F 19.4 °F 86% 29.72 in 1.5 mi SSW 11.5 mph - N/A Snow Light Snow
8:44 AM 23.0 °F 11.1 °F 19.4 °F 86% 29.72 in 1.4 mi SSW 12.7 mph - N/A Snow Light Snow
8:58 AM 23.0 °F 10.6 °F 19.4 °F 86% 29.72 in 1.0 mi SSW 13.8 mph - N/A Snow Light Snow
9:00 AM 23.0 °F 11.1 °F 19.4 °F 86% 29.74 in 1.0 mi SSW 12.7 mph - N/A Snow Light Snow
9:14 AM 23.0 °F 11.7 °F 19.4 °F 86% 29.71 in 1.5 mi SSW 11.5 mph - N/A Snow Light Snow
9:39 AM 23.0 °F 11.1 °F 19.4 °F 86% 29.72 in 4.0 mi SSW 12.7 mph - N/A Snow Light Snow
9:42 AM 23.0 °F 11.1 °F 19.4 °F 86% 29.72 in 4.0 mi SSW 12.7 mph - N/A Snow Light Snow
9:59 AM 23.0 °F 9.6 °F 19.4 °F 86% 29.72 in 2.5 mi SSW 16.1 mph - N/A Snow Light Snow
10:00 AM 23.0 °F 9.6 °F 19.4 °F 86% 29.74 in 2.5 mi SSW 16.1 mph - N/A Snow Light Snow
10:34 AM 23.0 °F 10.1 °F 19.4 °F 86% 29.72 in 4.0 mi SW 15.0 mph - N/A Snow Light Snow
10:56 AM 23.0 °F 11.7 °F 21.2 °F 93% 29.72 in 2.1 mi WSW 11.5 mph 18.4 mph N/A Snow Light Snow
10:58 AM 23.0 °F 11.7 °F 21.2 °F 93% 29.72 in 1.2 mi West 11.5 mph - N/A Snow Light Snow
11:00 AM 23 °F - 21 °F 89% 29.74 in 1 mi West 11.5 mph - - Snow Light Snow
11:00 AM 23.0 °F 11.7 °F 21.2 °F 93% 29.74 in 1.0 mi WNW 11.5 mph - N/A Snow Light Snow
11:02 AM 23.0 °F 12.4 °F 21.2 °F 93% 29.72 in 0.6 mi West 10.4 mph - N/A Snow Light Snow
11:43 AM 23.0 °F 11.7 °F 19.4 °F 86% 29.74 in 1.0 mi West 11.5 mph - N/A Snow Light Snow
11:47 AM 21.2 °F 9.5 °F 19.4 °F 93% 29.74 in 1.0 mi West 11.5 mph - N/A Snow Light Snow
12:00 PM 21.2 °F 10.1 °F 19.4 °F 93% 29.77 in 1.0 mi West 10.4 mph - N/A Snow Light Snow
12:20 PM 21.2 °F 10.9 °F 19.4 °F 93% 29.75 in 1.5 mi West 9.2 mph - N/A Snow Light Snow
12:39 PM 21.2 °F 11.7 °F 17.6 °F 86% 29.75 in 2.5 mi West 8.1 mph - N/A Snow Light Snow
12:46 PM 21.2 °F 11.7 °F 17.6 °F 86% 29.74 in 7.0 mi West 8.1 mph - N/A Snow Light Snow
12:53 PM 21.2 °F 9.5 °F 15.8 °F 80% 29.74 in 9.0 mi West 11.5 mph - N/A Snow Light Snow
1:00 PM 21.2 °F 10.1 °F 15.8 °F 80% 29.77 in 9.0 mi West 10.4 mph - N/A Snow Light Snow
2:00 PM 22 °F - 15 °F 62% 29.79 in 6 mi West 10.4 mph - -   Overcast
2:00 PM 21.2 °F 10.1 °F 14.0 °F 74% 29.79 in 20.0 mi West 10.4 mph - N/A Snow Light Snow
2:07 PM - - - N/A% - 20.0 mi West 10.4 mph - N/A   Mostly Cloudy
3:00 PM 23.0 °F 11.7 °F 14.0 °F 68% 29.81 in 30.0 mi WSW 11.5 mph - N/A   Mostly Cloudy
4:00 PM 17.6 °F 5.0 °F 8.6 °F 68% 29.83 in 20.0 mi SW 11.5 mph - N/A   Scattered Clouds
5:00 PM 16 °F - 9 °F 64% 29.84 in 9 mi SSW 10.4 mph - -  
5:00 PM 15.8 °F 3.4 °F 8.6 °F 73% 29.84 in 20.0 mi SSW 10.4 mph - N/A   Scattered Clouds
5:21 PM 14.0 °F 0.5 °F 8.6 °F 79% 29.83 in 9.0 mi South 11.5 mph - N/A   Mostly Cloudy
5:31 PM 14.0 °F -0.2 °F 6.8 °F 73% 29.83 in 9.0 mi South 12.7 mph - N/A   Mostly Cloudy
5:51 PM 12.2 °F -1.8 °F 6.8 °F 79% 29.83 in 9.0 mi South 11.5 mph - N/A   Overcast
6:00 PM 10.4 °F -4.8 °F 6.8 °F 85% 29.86 in 9.0 mi SSW 12.7 mph - N/A   Mostly Cloudy
7:00 PM 14.0 °F 0.5 °F 8.6 °F 79% 29.87 in 9.0 mi South 11.5 mph - N/A   Clear
7:13 PM 15.8 °F 3.4 °F 10.4 °F 79% 29.85 in 9.0 mi South 10.4 mph - N/A   Mostly Cloudy
8:00 PM 17 °F - 11 °F 66% 29.88 in 9 mi South 10.4 mph - -   Overcast
8:00 PM 17.6 °F 6.4 °F 10.4 °F 73% 29.88 in 9.0 mi South 9.2 mph - N/A   Overcast
8:01 PM 17.6 °F 5.7 °F 10.4 °F 73% 29.86 in 9.0 mi South 10.4 mph - N/A Snow Light Snow
8:17 PM 17.6 °F 5.7 °F 12.2 °F 79% 29.86 in 4.0 mi South 10.4 mph - N/A Snow Light Snow
8:31 PM 17.6 °F 4.3 °F 10.4 °F 73% 29.87 in 2.4 mi SSE 12.7 mph - N/A Snow Light Snow
8:48 PM 17.6 °F 5.0 °F 10.4 °F 73% 29.87 in 2.5 mi SSE 11.5 mph - N/A Snow Light Snow
8:50 PM 17.6 °F 5.0 °F 10.4 °F 73% 29.87 in 4.0 mi SSE 11.5 mph - N/A Snow Light Snow
8:51 PM 17.6 °F 5.0 °F 10.4 °F 73% 29.87 in 4.0 mi SSE 11.5 mph - N/A   Unknown
8:52 PM 17.6 °F 5.0 °F 10.4 °F 73% 29.87 in 4.0 mi SSE 11.5 mph - N/A Snow Light Snow
9:00 PM 15.8 °F 2.7 °F 10.4 °F 79% 29.90 in 3.5 mi SSE 11.5 mph - N/A Snow Light Snow
9:11 PM 15.8 °F 4.2 °F 10.4 °F 79% 29.87 in 6.0 mi South 9.2 mph - N/A   Overcast
9:14 PM 15.8 °F 3.4 °F 10.4 °F 79% 29.87 in 6.0 mi South 10.4 mph - N/A Snow Light Snow
9:20 PM 15.8 °F 3.4 °F 10.4 °F 79% 29.88 in 5.0 mi South 10.4 mph - N/A Snow Light Snow
9:38 PM 15.8 °F 2.7 °F 10.4 °F 79% 29.88 in 5.0 mi South 11.5 mph - N/A   Overcast
10:00 PM 15.8 °F 3.4 °F 10.4 °F 79% 29.91 in 9.0 mi SSE 10.4 mph - N/A   Overcast
10:10 PM 15.8 °F 2.7 °F 10.4 °F 79% 29.88 in 9.0 mi SSE 11.5 mph - N/A Snow Light Snow
10:16 PM 15.8 °F 2.7 °F 10.4 °F 79% 29.88 in 9.0 mi SSE 11.5 mph - N/A   Overcast
10:23 PM 17.6 °F 5.7 °F 10.4 °F 73% 29.88 in 9.0 mi SSE 10.4 mph - N/A Snow Light Snow
11:00 PM 16 °F - 10 °F 66% 29.91 in 9 mi South 12.7 mph - - Snow Light Snow
11:02 PM 15.8 °F 2.7 °F 10.4 °F 79% 29.88 in 9.0 mi South 11.5 mph - N/A   Overcast
11:23 PM 17.6 °F 4.3 °F 8.6 °F 68% 29.89 in 9.0 mi SSE 12.7 mph - N/A Snow Light Snow
11:41 PM 15.8 °F 2.1 °F 10.4 °F 79% 29.89 in 9.0 mi South 12.7 mph - N/A   Overcast